{"data":{"norad_id":59510,"epoch":"2026-05-25T04:32:35.534688Z","epoch_age_seconds":62003,"freshness":"FRESH","line1":"1 59510U 24072A   26145.18930017  .00009332  00000+0  38069-3 0  9997","line2":"2 59510  97.4139 225.5482 0002288 141.7381 218.4019 15.24645651117203","mean_motion":15.24645651,"eccentricity":0.0002288,"inclination_deg":97.4139,"raan_deg":225.5482,"arg_perigee_deg":141.7381,"mean_anomaly_deg":218.4019,"bstar":0.00038069,"rev_number":11720,"period_min":94.448175486253,"perigee_km":490.27782876055,"apogee_km":493.4215346661,"semimajor_km":6869.9866817133,"source":"CELESTRAK","updated_at":"2026-05-25T13:38:01.461210Z"}}